Regional Weather Roundup
Issued by NWS Albany, NY

Home | Current Version | Previous Version | Graphics & Text | Print | Product List | Glossary On
Versions: 1 2 3 4 5 6 7 8 9 10 11 12 13 14 15 16 17 18 19 20 21 22 23 24 25 26 27 28 29 30 31 32 33 34 35 36 37 38 39 40 41 42 43 44 45 46 47 48 49 50
000
ASUS41 KALY 240210
RWRALY

NEW YORK STATE HOURLY WEATHER ROUNDUP
NATIONAL WEATHER SERVICE ALBANY NY
1000 PM EDT SAT MAY 23 2015

NOTE: "FAIR" INDICATES FEW OR NO CLOUDS BELOW 12,000 FEET WITH NO
SIGNIFICANT WEATHER AND/OR NO OBSTRUCTIONS TO VISIBILITY.

NYZ032-033-038>043-046>054-057>066-NYZ062>081-240300-
EAST


CITY           SKY/WX    TMP DP  RH WIND       PRES   REMARKS
ALBANY         CLEAR     51  33  50 CALM      30.29F
GLENS FALLS    CLEAR     50  32  50 S6        30.26S
POUGHKEEPSIE   CLEAR     52  35  52 CALM      30.31R
NEWBURGH       CLEAR     55  37  50 CALM      30.33S
MONTGOMERY     CLEAR     50  39  66 CALM      30.32S
WHITE PLAINS   CLEAR     52  43  71 SE3       30.34R
ISLIP          CLEAR     53  43  68 SW9       30.35R
NEW YORK CITY  CLEAR     60  43  53 S7        30.34R
CENTRAL PARK   CLEAR     59  41  51 CALM      30.37R
$$

NYZ005>009-017-018-044>046-055-056-240300-
CENTRAL


CITY           SKY/WX    TMP DP  RH WIND       PRES   REMARKS
FULTON         CLEAR     53  35  50 S7        30.27S
SYRACUSE       PTCLDY    54  37  52 S6        30.28R
ROME           CLEAR     45  39  79 CALM      30.29S
ELMIRA         CLEAR     48  37  65 CALM      30.32R
BINGHAMTON     CLEAR     57  28  33 CALM      30.31S
MONTICELLO     CLEAR     48  36  61 CALM      30.35R
$$

NYZ026>034-041>043-240300-
NORTH


CITY           SKY/WX    TMP DP  RH WIND       PRES   REMARKS
WATERTOWN      CLEAR     54  29  38 S8        30.22F
FORT DRUM      NOT AVBL
MASSENA        PTCLDY    54  26  34 SW17      30.17S
SARANAC LAKE   PTCLDY    45  24  43 SW8       30.20S
PLATTSBURGH    CLOUDY    55  26  32 S3        30.19R
$$

NYZ001>004-010>016-019>021-240300-
WEST


CITY           SKY/WX    TMP DP  RH WIND       PRES   REMARKS
NIAGARA FALLS  PTCLDY    53  29  39 SW10      30.28S
BUFFALO        PTCLDY    55  31  39 SW7       30.30R
DUNKIRK        CLEAR     54  31  41 S8        30.31S
JAMESTOWN      CLEAR     54  30  40 CALM      30.35R
WELLSVILLE     PTCLDY    54  29  38 W6        30.36R
ROCHESTER      CLEAR     55  22  27 SW8       30.29R
PENN YAN       CLEAR     54  35  48 S6        30.30S
$$

             KEY
       WCI = WIND CHILL INDEX
       VSB = VISIBILITY
       HX  = HEAT INDEX
$$



USA.gov is the U.S. government's official web portal to all federal, state and local government web resources and services.